Voltar ao catálogo

CZ-3A DEB

LostGTO
NORAD 35565·DEBRIS·🇨🇳 China

Lançado Feb 2, 2007 de Xichang Satellite Launch Center

Loading…

TLE

ObsoletoSource: Space-Track

Época: Aug 11, 2009, 18:22 UTC

1 35565U 07003Z   09223.76538405 -.00001805  00000-0 -16716-1 0  9996
2 35565  25.9541 105.3527 7523710 259.4024  13.3261  1.87205684  7099

Acompanhe CZ-3A DEB em tempo real com AllMySat

Download on the App Store